Location: Perugia
(43.1330°N, 12.3670°E)
Time: 05:56:25
(UTC+01:00)

ISS - Pass Details

Date: 30 January 2021
Orbit: 417 x 422 km, 51.6° (Epoch: 08 March)

Event Time Altitude Azimuth Distance (km) Brightness Sun altitude
Rises 18:51:40 0° 303° (WNW) 2,375 0.8 -16.8°
Reaches altitude 10° 18:54:01 10° 318° (NW) 1,509 -0.5 -17.2°
Enters shadow 18:56:50 25° 14° (NNE) 893 -2.3 -17.7°
